Regional Weather Roundup
Issued by NWS

Home | Current Version | Previous Version | Graphics & Text | Print | Product List | Glossary Off
Versions: 1 2 3 4 5 6 7 8 9 10 11 12 13 14 15 16 17 18 19 20 21 22 23 24 25 26 27 28 29 30 31 32 33 34 35 36 37 38 39 40 41 42 43 44 45 46 47 48 49 50

000
ASUS43 KDMX 250806
RWRIA

WEATHER ROUNDUP FOR IOWA
NATIONAL WEATHER SERVICE DES MOINES IA
300 AM CDT MON SEP 25 2017

NOTE: "FAIR" INDICATES FEW OR NO CLOUDS BELOW 12,000 FEET WITH NO
SIGNIFICANT WEATHER AND/OR OBSTRUCTIONS TO VISIBILITY.

* - THESE STATIONS ARE NOT NWS STATIONS...THUS NOT UNDER NWS
QUALITY CONTROL.  THEY ALSO DO NOT REPORT WEATHER SUCH
AS PRECIPITATION OR FOG.

IAZ001>003-012>014-020>022-031>034-043>046-250900-
   NORTHWEST IOWA

CITY           SKY/WX    TMP DP  RH WIND       PRES   REMARKS
CARROLL *      CLOUDY    66  66 100 NW8       29.94F
CHEROKEE *     CLOUDY    60  60 100 W3        29.97S
DENISON *      CLOUDY    63  63 100 W7G13     29.99R
LE MARS *      RAIN      57  55  94 VRB7G16   30.00R
ORANGE CITY *  RAIN      57  57 100 NW8       30.00S
SHELDON *      LGT RAIN  57  57 100 VRB7      29.98R
SIOUX CITY     LGT RAIN  57  57 100 NW7       29.98F
SPENCER        LGT RAIN  61  60  97 N9        29.97S
STORM LAKE *   CLOUDY    63  61  94 N8        29.95F
$$

IAZ055>058-069>071-079>083-090>094-250900-
   SOUTHWEST IOWA

CITY           SKY/WX    TMP DP  RH WIND       PRES   REMARKS
ATLANTIC *     MOCLDY    64  64 100 N8        29.95S
AUDUBON *      CLOUDY    64  63  94 NW6       29.97R
CLARINDA *     PTCLDY    66  64  94 N6G15     29.96S
COUNCIL BLFS * MOCLDY    63  63 100 NE12      29.90F
CRESTON *      PTCLDY    70  64  83 S7        29.95S
HARLAN  *      CLOUDY    63  63 100 N7        29.98F
LAMONI         PTCLDY    70  64  81 S6        29.94S
RED OAK *      PTCLDY    64  63  94 NE8       29.93F
SHENANDOAH *   CLEAR     66  63  88 NE8       29.93F
$$

IAZ047>049-059>061-072>074-084-250900-
   CENTRAL IOWA

CITY           SKY/WX    TMP DP  RH WIND       PRES   REMARKS
AMES           PTCLDY    64  64 100 CALM      29.93S
ANKENY *       PTCLDY    68  63  83 CALM      29.94S
BOONE *        CLEAR     70  63  78 W5        29.93S
CHARITON *     PTCLDY    68  63  83 S7        29.94S
DES MOINES     PTCLDY    72  63  73 SE6       29.92S
GRINNELL*      CLEAR     68  62  79 S5        29.95F
KNOXVILLE *    PTCLDY    70  63  78 S5        29.93S
MARSHALLTOWN   CLEAR     66  63  90 SE5       29.93S
NEWTON *       CLEAR     68  63  83 CALM      29.94S
PELLA *        CLEAR     68  62  81 CALM      29.94S
PERRY *          N/A     65  64  96 CALM      29.93S
$$

IAZ004>006-015-016-023>025-035-036-250900-
   NORTH CENTRAL IOWA

CITY           SKY/WX    TMP DP  RH WIND       PRES   REMARKS
ALGONA *       CLOUDY    64  64 100 MISG      29.94S
CLARION *      MOCLDY    66  66 100 E7        29.94F
ESTHERVILLE    HVY RAIN  59  59 100 N12       29.97S FOG
FORT DODGE *   PTCLDY    66  65  96 E5        29.94S
MASON CITY     CLOUDY    65  63  93 CALM      29.96S
FOREST CITY *    N/A     68  66  94 CALM      29.95F
WEBSTER CITY * MOCLDY    66  63  88 NE3       29.92S
IOWA FALLS *     N/A     64  61  90 CALM      29.95S
$$

IAZ007>011-017>019-026>030-037>042-050>054-066-250900-
   NORTHEAST IOWA

CITY           SKY/WX    TMP DP  RH WIND       PRES   REMARKS
CEDAR RAPIDS   CLEAR     68  62  81 SE6       29.94F
CHARLES CITY * CLEAR     64  64 100 CALM      29.95S
CLINTON *      CLEAR    N/A N/A N/A E3        29.97S
DECORAH *      CLEAR     68  63  83 CALM      29.95R
DUBUQUE        CLEAR     67  61  81 S5        29.97F
MONTICELLO *   CLEAR     63  61  94 CALM      29.95S
OELWEIN *      CLEAR     66  63  88 SE6       29.95F
WATERLOO       PTCLDY    69  61  75 S5        29.92F
$$

IAZ064-065-067-068-078-250900-
   EAST CENTRAL IOWA

CITY           SKY/WX    TMP DP  RH WIND       PRES   REMARKS
DAVENPORT      CLEAR     67  61  81 SE5       29.97F
IOWA CITY      CLEAR     66  62  87 CALM      29.96S
MT. PLEASANT * CLEAR     67  61  81 CALM      29.95S
MUSCATINE *    CLEAR     64  63  94 CALM      29.95S
QUAD CITIES    CLEAR     70  60  70 E5        29.95S
$$

IAZ062-063-075>077-085>089-095>099-250900-
   SOUTHEAST IOWA

CITY           SKY/WX    TMP DP  RH WIND       PRES   REMARKS
BURLINGTON     CLEAR     69  63  81 CALM      29.95S
FAIRFIELD *    CLEAR     66  61  82 CALM      29.95R
FORT MADISON * CLEAR     72  63  73 S3        29.95F
KEOKUK *       CLEAR     68  64  88 CALM      29.94S
OSKALOOSA *      N/A     65  62  89 S5        29.95S
CENTERVILLE *    N/A     66  63  88 CALM      29.96F
OTTUMWA        CLEAR     70  63  78 S6        29.95R
WASHINGTON *   CLEAR     64  63  94 S3        29.96S
$$

ABBREVIATIONS USED IN REMARKS
   TC - TEMPERATURES IN CELSIUS
  WCI - WIND CHILL INDEX
   HX - HEAT INDEX
  VSB - VISIBILITY
$$




USA.gov is the U.S. government's official web portal to all federal, state and local government web resources and services.